Location: Curupao
(10.4996°N, 66.6442°W)
Time: 20:26:45
(UTC+00:00)

Cosmos 1484 Rocket - Pass Details

Date: 23 May 2024
Orbit: 481 x 521 km, 97.6° (Epoch: 22 June)

Event Time Altitude Azimuth Distance (km) Brightness Sun altitude
Rises 08:28:38 0° 14° (NNE) 2,613 6.9 -22.2°
Reaches altitude 10° 08:30:43 10° 17° (NNE) 1,734 5.9 -21.7°
Maximum altitude 08:34:27 71° 101° (E) 548 2.8 -20.9°
Enters shadow 08:35:44 39° 175° (S) 791 3.4 -20.6°
